Time,TemperatureF,DewpointF,PressureIn,WindDirection,WindDirectionDegrees,WindSpeedMPH,WindSpeedGustMPH,Humidity,HourlyPrecipIn,Conditions,Clouds,dailyrainin,SoftwareType,DateUTC
2013-02-10 00:02:00,28.2,25.9,29.82,East,87,1.0,1.0,91,0.00,,,0.00,Wunderground v.1.15,2013-02-10 06:02:00,
2013-02-10 00:07:00,28.2,25.9,29.82,SSE,159,0.0,1.0,91,0.00,,,0.00,Wunderground v.1.15,2013-02-10 06:07:00,
2013-02-10 00:12:00,28.2,25.9,29.81,ENE,61,0.0,3.0,91,0.00,,,0.00,Wunderground v.1.15,2013-02-10 06:12:00,
2013-02-10 00:17:00,28.3,26.0,29.81,NW,321,1.0,4.0,91,0.00,,,0.00,Wunderground v.1.15,2013-02-10 06:17:00,
2013-02-10 00:22:00,28.3,26.0,29.80,East,88,1.0,1.0,91,0.00,,,0.00,Wunderground v.1.15,2013-02-10 06:22:00,
2013-02-10 00:27:00,28.3,26.0,29.80,ENE,68,1.0,5.0,91,0.00,,,0.00,Wunderground v.1.15,2013-02-10 06:27:00,
2013-02-10 00:32:00,28.3,26.0,29.80,NNE,32,1.0,2.0,91,0.00,,,0.00,Wunderground v.1.15,2013-02-10 06:32:00,
2013-02-10 00:37:00,28.3,26.0,29.80,East,99,1.0,3.0,91,0.00,,,0.00,Wunderground v.1.15,2013-02-10 06:37:00,
2013-02-10 00:42:00,28.4,26.1,29.80,NE,37,1.0,1.0,91,0.00,,,0.00,Wunderground v.1.15,2013-02-10 06:42:00,
2013-02-10 00:47:00,28.4,26.1,29.80,East,91,1.0,3.0,91,0.00,,,0.00,Wunderground v.1.15,2013-02-10 06:47:00,
2013-02-10 00:53:00,28.5,26.2,29.80,NNE,26,1.0,2.0,91,0.00,,,0.00,Wunderground v.1.15,2013-02-10 06:53:00,
2013-02-10 00:58:00,28.5,26.2,29.79,ENE,69,1.0,5.0,91,0.00,,,0.00,Wunderground v.1.15,2013-02-10 06:58:00,
2013-02-10 01:03:00,28.6,26.3,29.79,East,93,1.0,1.0,91,0.00,,,0.00,Wunderground v.1.15,2013-02-10 07:03:00,
2013-02-10 01:08:00,28.6,26.3,29.79,NE,46,1.0,2.0,91,0.00,,,0.00,Wunderground v.1.15,2013-02-10 07:08:00,
2013-02-10 01:13:00,28.7,26.4,29.79,North,8,1.0,1.0,91,0.00,,,0.00,Wunderground v.1.15,2013-02-10 07:13:00,
2013-02-10 01:19:00,28.7,26.4,29.79,ENE,72,1.0,1.0,91,0.00,,,0.00,Wunderground v.1.15,2013-02-10 07:19:00,
2013-02-10 01:24:00,28.8,26.5,29.78,NNE,32,1.0,1.0,91,0.00,,,0.00,Wunderground v.1.15,2013-02-10 07:24:00,
2013-02-10 01:29:00,28.8,26.5,29.78,NE,35,1.0,3.0,91,0.00,,,0.00,Wunderground v.1.15,2013-02-10 07:29:00,
2013-02-10 01:34:00,28.9,26.6,29.78,ENE,76,1.0,3.0,91,0.00,,,0.00,Wunderground v.1.15,2013-02-10 07:34:00,
2013-02-10 01:39:00,28.9,26.6,29.77,NE,43,1.0,2.0,91,0.00,,,0.00,Wunderground v.1.15,2013-02-10 07:39:00,
2013-02-10 01:45:00,29.0,26.7,29.77,ESE,122,2.0,4.0,91,0.00,,,0.00,Wunderground v.1.15,2013-02-10 07:45:00,
2013-02-10 01:50:00,29.1,26.8,29.77,SE,139,2.0,2.0,91,0.00,,,0.00,Wunderground v.1.15,2013-02-10 07:50:00,
2013-02-10 01:55:00,29.1,26.8,29.76,ESE,115,2.0,3.0,91,0.00,,,0.00,Wunderground v.1.15,2013-02-10 07:55:00,
2013-02-10 02:00:00,29.2,26.9,29.76,East,79,2.0,2.0,91,0.00,,,0.00,Wunderground v.1.15,2013-02-10 08:00:00,
2013-02-10 02:05:00,29.1,26.8,29.76,ENE,73,1.0,5.0,91,0.00,,,0.00,Wunderground v.1.15,2013-02-10 08:05:00,
2013-02-10 02:10:00,29.1,26.8,29.76,ENE,60,1.0,2.0,91,0.00,,,0.00,Wunderground v.1.15,2013-02-10 08:10:00,
2013-02-10 02:16:00,29.1,26.8,29.75,NE,41,1.0,2.0,91,0.00,,,0.00,Wunderground v.1.15,2013-02-10 08:16:00,
2013-02-10 02:21:00,29.1,26.8,29.75,ENE,67,1.0,4.0,91,0.00,,,0.00,Wunderground v.1.15,2013-02-10 08:21:00,
2013-02-10 02:26:00,29.0,26.7,29.75,East,79,1.0,4.0,91,0.00,,,0.00,Wunderground v.1.15,2013-02-10 08:26:00,
2013-02-10 02:31:00,29.0,26.7,29.74,East,89,1.0,1.0,91,0.00,,,0.00,Wunderground v.1.15,2013-02-10 08:31:00,
2013-02-10 02:36:00,29.0,26.7,29.75,ESE,105,1.0,3.0,91,0.00,,,0.00,Wunderground v.1.15,2013-02-10 08:36:00,
2013-02-10 02:42:00,29.0,26.7,29.74,East,98,2.0,2.0,91,0.00,,,0.00,Wunderground v.1.15,2013-02-10 08:42:00,
2013-02-10 02:47:00,29.0,26.7,29.74,ESE,107,2.0,2.0,91,0.00,,,0.00,Wunderground v.1.15,2013-02-10 08:47:00,
2013-02-10 02:52:00,29.0,26.7,29.73,NNE,18,1.0,3.0,91,0.00,,,0.00,Wunderground v.1.15,2013-02-10 08:52:00,
2013-02-10 02:57:00,29.0,26.7,29.73,NE,51,2.0,3.0,91,0.00,,,0.00,Wunderground v.1.15,2013-02-10 08:57:00,
2013-02-10 03:02:00,29.0,26.7,29.72,NW,321,2.0,2.0,91,0.00,,,0.00,Wunderground v.1.15,2013-02-10 09:02:00,
2013-02-10 03:08:00,29.0,26.7,29.72,East,85,2.0,4.0,91,0.00,,,0.00,Wunderground v.1.15,2013-02-10 09:08:00,
2013-02-10 03:13:00,28.9,26.6,29.71,ENE,58,2.0,4.0,91,0.00,,,0.00,Wunderground v.1.15,2013-02-10 09:13:00,
2013-02-10 03:18:00,28.9,26.6,29.70,North,1,2.0,4.0,91,0.00,,,0.00,Wunderground v.1.15,2013-02-10 09:18:00,
2013-02-10 03:23:00,28.8,26.8,29.69,ENE,69,3.0,6.0,92,0.00,,,0.00,Wunderground v.1.15,2013-02-10 09:23:00,
2013-02-10 03:28:00,28.6,26.6,29.68,NE,49,4.0,6.0,92,0.00,,,0.00,Wunderground v.1.15,2013-02-10 09:28:00,
2013-02-10 03:33:00,28.4,26.6,29.69,ESE,121,3.0,3.0,93,0.00,,,0.00,Wunderground v.1.15,2013-02-10 09:33:00,
2013-02-10 03:39:00,28.4,26.6,29.68,ESE,122,2.0,3.0,93,0.00,,,0.00,Wunderground v.1.15,2013-02-10 09:39:00,
2013-02-10 03:44:00,28.5,26.7,29.68,NNE,32,1.0,3.0,93,0.00,,,0.00,Wunderground v.1.15,2013-02-10 09:44:00,
2013-02-10 03:49:00,28.5,26.7,29.68,ENE,60,2.0,8.0,93,0.00,,,0.00,Wunderground v.1.15,2013-02-10 09:49:00,
2013-02-10 03:54:00,28.5,26.7,29.68,ENE,76,2.0,5.0,93,0.00,,,0.00,Wunderground v.1.15,2013-02-10 09:54:00,
2013-02-10 03:59:00,28.5,26.7,29.68,ESE,123,2.0,2.0,93,0.00,,,0.00,Wunderground v.1.15,2013-02-10 09:59:00,
2013-02-10 04:04:00,28.6,26.8,29.68,NNE,19,2.0,2.0,93,0.00,,,0.00,Wunderground v.1.15,2013-02-10 10:04:00,
2013-02-10 04:09:00,28.6,26.8,29.67,ENE,68,2.0,2.0,93,0.00,,,0.00,Wunderground v.1.15,2013-02-10 10:09:00,
2013-02-10 04:14:00,28.6,26.8,29.67,NE,53,3.0,5.0,93,0.00,,,0.00,Wunderground v.1.15,2013-02-10 10:14:00,
2013-02-10 04:19:00,28.7,26.9,29.67,NE,46,3.0,3.0,93,0.00,,,0.00,Wunderground v.1.15,2013-02-10 10:19:00,
2013-02-10 04:25:00,28.7,26.9,29.66,ESE,116,3.0,3.0,93,0.00,,,0.00,Wunderground v.1.15,2013-02-10 10:25:00,
2013-02-10 04:30:00,28.6,26.8,29.65,NE,35,2.0,3.0,93,0.00,,,0.00,Wunderground v.1.15,2013-02-10 10:30:00,
2013-02-10 04:35:00,28.6,26.8,29.65,NNE,27,2.0,5.0,93,0.00,,,0.00,Wunderground v.1.15,2013-02-10 10:35:00,
2013-02-10 04:40:00,28.6,26.8,29.64,NNE,19,3.0,7.0,93,0.00,,,0.00,Wunderground v.1.15,2013-02-10 10:40:00,
2013-02-10 04:45:00,28.6,26.8,29.64,ENE,73,3.0,7.0,93,0.00,,,0.00,Wunderground v.1.15,2013-02-10 10:45:00,
2013-02-10 04:51:00,28.7,26.9,29.63,East,80,3.0,3.0,93,0.00,,,0.00,Wunderground v.1.15,2013-02-10 10:51:00,
2013-02-10 04:56:00,28.7,26.9,29.63,East,84,3.0,6.0,93,0.00,,,0.00,Wunderground v.1.15,2013-02-10 10:56:00,
2013-02-10 05:01:00,28.7,26.9,29.61,East,87,3.0,4.0,93,0.00,,,0.00,Wunderground v.1.15,2013-02-10 11:01:00,
2013-02-10 05:06:00,28.7,26.9,29.60,ESE,112,3.0,4.0,93,0.00,,,0.00,Wunderground v.1.15,2013-02-10 11:06:00,
2013-02-10 05:11:00,28.7,26.7,29.60,NE,53,3.0,3.0,92,0.00,,,0.00,Wunderground v.1.15,2013-02-10 11:11:00,
2013-02-10 05:17:00,28.6,26.6,29.59,NE,47,3.0,7.0,92,0.00,,,0.00,Wunderground v.1.15,2013-02-10 11:17:00,
2013-02-10 05:22:00,28.6,26.6,29.59,North,6,4.0,9.0,92,0.00,,,0.00,Wunderground v.1.15,2013-02-10 11:22:00,
2013-02-10 05:27:00,28.6,26.6,29.59,ENE,58,4.0,10.0,92,0.00,,,0.00,Wunderground v.1.15,2013-02-10 11:27:00,
2013-02-10 05:32:00,28.6,26.6,29.58,NE,46,4.0,5.0,92,0.00,,,0.00,Wunderground v.1.15,2013-02-10 11:32:00,
2013-02-10 05:37:00,28.6,26.6,29.58,NNE,13,4.0,5.0,92,0.00,,,0.00,Wunderground v.1.15,2013-02-10 11:37:00,
2013-02-10 05:42:00,28.5,26.5,29.57,NE,55,4.0,4.0,92,0.00,,,0.00,Wunderground v.1.15,2013-02-10 11:42:00,
2013-02-10 05:48:00,28.6,26.6,29.58,ENE,62,4.0,4.0,92,0.00,,,0.00,Wunderground v.1.15,2013-02-10 11:48:00,
2013-02-10 05:53:00,28.6,26.6,29.57,ENE,75,4.0,5.0,92,0.00,,,0.00,Wunderground v.1.15,2013-02-10 11:53:00,
2013-02-10 05:58:00,28.6,26.6,29.57,NE,56,4.0,5.0,92,0.00,,,0.00,Wunderground v.1.15,2013-02-10 11:58:00,
2013-02-10 06:03:00,28.7,26.7,29.56,ENE,73,4.0,6.0,92,0.00,,,0.00,Wunderground v.1.15,2013-02-10 12:03:00,
2013-02-10 06:08:00,28.7,26.7,29.56,NE,41,5.0,12.0,92,0.00,,,0.00,Wunderground v.1.15,2013-02-10 12:08:00,
2013-02-10 06:14:00,28.8,26.8,29.59,ENE,57,3.0,5.0,92,0.00,,,0.00,Wunderground v.1.15,2013-02-10 12:14:00,
2013-02-10 06:19:00,28.8,26.8,29.59,NNE,28,2.0,5.0,92,0.00,,,0.00,Wunderground v.1.15,2013-02-10 12:19:00,
2013-02-10 06:24:00,28.8,26.8,29.58,ENE,67,3.0,5.0,92,0.00,,,0.00,Wunderground v.1.15,2013-02-10 12:24:00,
2013-02-10 06:29:00,28.8,26.8,29.58,NE,35,3.0,5.0,92,0.00,,,0.00,Wunderground v.1.15,2013-02-10 12:29:00,
2013-02-10 06:34:00,28.8,26.8,29.57,North,352,2.0,4.0,92,0.00,,,0.00,Wunderground v.1.15,2013-02-10 12:34:00,
2013-02-10 06:40:00,28.8,26.8,29.56,East,100,3.0,3.0,92,0.00,,,0.00,Wunderground v.1.15,2013-02-10 12:40:00,
2013-02-10 06:45:00,28.9,26.9,29.56,NE,40,3.0,3.0,92,0.00,,,0.00,Wunderground v.1.15,2013-02-10 12:45:00,
2013-02-10 06:50:00,28.9,26.9,29.56,NE,53,3.0,3.0,92,0.00,,,0.00,Wunderground v.1.15,2013-02-10 12:50:00,
2013-02-10 06:55:00,29.0,27.0,29.56,ENE,78,3.0,7.0,92,0.00,,,0.00,Wunderground v.1.15,2013-02-10 12:55:00,
2013-02-10 07:00:00,29.0,27.0,29.55,NE,41,3.0,5.0,92,0.00,,,0.00,Wunderground v.1.15,2013-02-10 13:00:00,
2013-02-10 07:06:00,29.0,27.0,29.53,NNE,33,4.0,5.0,92,0.00,,,0.00,Wunderground v.1.15,2013-02-10 13:06:00,
2013-02-10 07:11:00,29.0,27.0,29.52,NNE,26,4.0,4.0,92,0.00,,,0.00,Wunderground v.1.15,2013-02-10 13:11:00,
2013-02-10 07:16:00,29.0,27.0,29.51,NE,46,5.0,5.0,92,0.00,,,0.00,Wunderground v.1.15,2013-02-10 13:16:00,
2013-02-10 07:21:00,28.9,26.9,29.50,NE,46,5.0,5.0,92,0.00,,,0.00,Wunderground v.1.15,2013-02-10 13:21:00,
2013-02-10 07:26:00,28.8,26.8,29.49,NE,44,4.0,6.0,92,0.00,,,0.00,Wunderground v.1.15,2013-02-10 13:26:00,
2013-02-10 07:31:00,28.7,26.7,29.48,NNE,18,5.0,7.0,92,0.00,,,0.00,Wunderground v.1.15,2013-02-10 13:31:00,
2013-02-10 07:36:00,28.7,26.9,29.51,ENE,65,5.0,8.0,93,0.00,,,0.00,Wunderground v.1.15,2013-02-10 13:36:00,
2013-02-10 07:41:00,28.7,26.9,29.52,ENE,58,4.0,4.0,93,0.00,,,0.00,Wunderground v.1.15,2013-02-10 13:41:00,
2013-02-10 07:46:00,28.7,26.9,29.54,ENE,68,3.0,6.0,93,0.00,,,0.00,Wunderground v.1.15,2013-02-10 13:46:00,
2013-02-10 07:51:00,28.8,27.0,29.54,ENE,77,3.0,3.0,93,0.00,,,0.00,Wunderground v.1.15,2013-02-10 13:51:00,
2013-02-10 07:56:00,28.8,27.0,29.54,NNE,16,3.0,4.0,93,0.00,,,0.00,Wunderground v.1.15,2013-02-10 13:56:00,
2013-02-10 08:02:00,28.9,27.1,29.51,ENE,62,4.0,7.0,93,0.00,,,0.00,Wunderground v.1.15,2013-02-10 14:02:00,
2013-02-10 08:07:00,28.9,27.1,29.50,NE,36,4.0,8.0,93,0.00,,,0.00,Wunderground v.1.15,2013-02-10 14:07:00,
2013-02-10 08:12:00,28.9,27.1,29.48,East,81,4.0,7.0,93,0.00,,,0.00,Wunderground v.1.15,2013-02-10 14:12:00,
2013-02-10 08:17:00,29.0,27.2,29.47,NE,46,5.0,7.0,93,0.00,,,0.00,Wunderground v.1.15,2013-02-10 14:17:00,
2013-02-10 08:22:00,29.1,27.3,29.47,ENE,62,5.0,8.0,93,0.00,,,0.00,Wunderground v.1.15,2013-02-10 14:22:00,
2013-02-10 08:28:00,29.3,27.8,29.47,ENE,58,5.0,8.0,94,0.00,,,0.00,Wunderground v.1.15,2013-02-10 14:28:00,
2013-02-10 08:33:00,29.3,27.8,29.48,NE,56,4.0,8.0,94,0.00,,,0.00,Wunderground v.1.15,2013-02-10 14:33:00,
2013-02-10 08:38:00,29.4,27.9,29.48,ENE,65,4.0,8.0,94,0.00,,,0.00,Wunderground v.1.15,2013-02-10 14:38:00,
2013-02-10 08:43:00,29.4,27.9,29.48,ENE,75,4.0,5.0,94,0.00,,,0.00,Wunderground v.1.15,2013-02-10 14:43:00,
2013-02-10 08:48:00,29.6,28.1,29.47,NNW,340,4.0,7.0,94,0.00,,,0.00,Wunderground v.1.15,2013-02-10 14:48:00,
2013-02-10 08:54:00,29.7,28.2,29.47,ENE,75,4.0,9.0,94,0.00,,,0.00,Wunderground v.1.15,2013-02-10 14:54:00,
2013-02-10 08:59:00,29.9,28.4,29.47,NE,55,3.0,9.0,94,0.00,,,0.00,Wunderground v.1.15,2013-02-10 14:59:00,
2013-02-10 09:04:00,30.0,28.5,29.47,NE,53,3.0,4.0,94,0.00,,,0.00,Wunderground v.1.15,2013-02-10 15:04:00,
2013-02-10 09:09:00,30.1,28.6,29.46,NNE,19,3.0,6.0,94,0.00,,,0.00,Wunderground v.1.15,2013-02-10 15:09:00,
2013-02-10 09:14:00,30.2,28.7,29.46,ENE,74,3.0,6.0,94,0.00,,,0.00,Wunderground v.1.15,2013-02-10 15:14:00,
2013-02-10 09:19:00,30.2,28.7,29.46,ENE,69,3.0,6.0,94,0.00,,,0.00,Wunderground v.1.15,2013-02-10 15:19:00,
2013-02-10 09:24:00,30.2,28.7,29.46,ENE,67,2.0,5.0,94,0.00,,,0.00,Wunderground v.1.15,2013-02-10 15:24:00,
2013-02-10 09:29:00,30.1,28.6,29.45,NE,40,2.0,5.0,94,0.00,,,0.00,Wunderground v.1.15,2013-02-10 15:29:00,
2013-02-10 09:34:00,29.9,28.4,29.44,NNE,32,3.0,4.0,94,0.00,,,0.00,Wunderground v.1.15,2013-02-10 15:34:00,
2013-02-10 09:39:00,29.8,28.3,29.42,NE,37,3.0,6.0,94,0.00,,,0.00,Wunderground v.1.15,2013-02-10 15:39:00,
2013-02-10 09:44:00,29.8,28.3,29.42,NE,37,3.0,5.0,94,0.00,,,0.00,Wunderground v.1.15,2013-02-10 15:44:00,
2013-02-10 09:50:00,29.8,28.3,29.42,NNE,26,3.0,3.0,94,0.00,,,0.00,Wunderground v.1.15,2013-02-10 15:50:00,
2013-02-10 09:55:00,29.8,28.3,29.42,ENE,72,2.0,4.0,94,0.00,,,0.00,Wunderground v.1.15,2013-02-10 15:55:00,
2013-02-10 10:00:00,29.9,28.4,29.42,NE,54,2.0,4.0,94,0.00,,,0.00,Wunderground v.1.15,2013-02-10 16:00:00,
2013-02-10 10:05:00,30.0,28.5,29.43,NE,56,2.0,4.0,94,0.00,,,0.00,Wunderground v.1.15,2013-02-10 16:05:00,
2013-02-10 10:10:00,30.0,28.5,29.42,NNE,24,2.0,2.0,94,0.00,,,0.00,Wunderground v.1.15,2013-02-10 16:10:00,
2013-02-10 10:16:00,30.2,28.7,29.39,NE,42,3.0,5.0,94,0.00,,,0.00,Wunderground v.1.15,2013-02-10 16:16:00,
2013-02-10 10:21:00,30.2,28.7,29.36,NE,55,3.0,5.0,94,0.00,,,0.00,Wunderground v.1.15,2013-02-10 16:21:00,
2013-02-10 10:26:00,30.4,28.9,29.35,East,79,4.0,6.0,94,0.00,,,0.00,Wunderground v.1.15,2013-02-10 16:26:00,
2013-02-10 10:31:00,30.7,29.2,29.35,ENE,78,4.0,4.0,94,0.00,,,0.00,Wunderground v.1.15,2013-02-10 16:31:00,
2013-02-10 10:36:00,30.9,29.4,29.36,West,262,3.0,5.0,94,0.00,,,0.00,Wunderground v.1.15,2013-02-10 16:36:00,
2013-02-10 10:42:00,31.1,29.6,29.37,NNE,20,2.0,4.0,94,0.00,,,0.00,Wunderground v.1.15,2013-02-10 16:42:00,
2013-02-10 10:47:00,31.2,29.7,29.37,WNW,300,1.0,4.0,94,0.00,,,0.00,Wunderground v.1.15,2013-02-10 16:47:00,
2013-02-10 10:53:00,31.4,29.9,29.38,SE,128,0.0,1.0,94,0.00,,,0.00,Wunderground v.1.15,2013-02-10 16:53:00,
2013-02-10 10:58:00,31.5,30.0,29.37,NNE,29,1.0,4.0,94,0.00,,,0.00,Wunderground v.1.15,2013-02-10 16:58:00,
2013-02-10 11:03:00,31.5,30.0,29.37,ENE,63,2.0,6.0,94,0.00,,,0.00,Wunderground v.1.15,2013-02-10 17:03:00,
2013-02-10 11:09:00,31.5,30.0,29.36,NNE,32,2.0,6.0,94,0.00,,,0.00,Wunderground v.1.15,2013-02-10 17:09:00,
2013-02-10 11:14:00,31.5,30.0,29.35,ENE,70,1.0,2.0,94,0.00,,,0.00,Wunderground v.1.15,2013-02-10 17:14:00,
2013-02-10 11:19:00,31.5,30.0,29.35,NE,34,2.0,2.0,94,0.00,,,0.00,Wunderground v.1.15,2013-02-10 17:19:00,
2013-02-10 11:24:00,31.6,30.1,29.35,ENE,77,1.0,2.0,94,0.00,,,0.00,Wunderground v.1.15,2013-02-10 17:24:00,
2013-02-10 11:30:00,31.6,30.1,29.34,NNE,27,1.0,1.0,94,0.00,,,0.00,Wunderground v.1.15,2013-02-10 17:30:00,
2013-02-10 11:35:00,31.6,30.1,29.33,NE,36,1.0,1.0,94,0.00,,,0.00,Wunderground v.1.15,2013-02-10 17:35:00,
2013-02-10 11:40:00,31.8,30.3,29.33,NNE,32,1.0,1.0,94,0.00,,,0.00,Wunderground v.1.15,2013-02-10 17:40:00,
2013-02-10 11:45:00,31.8,30.3,29.33,NE,53,0.0,2.0,94,0.00,,,0.00,Wunderground v.1.15,2013-02-10 17:45:00,
2013-02-10 11:50:00,31.9,30.4,29.32,NE,36,1.0,1.0,94,0.00,,,0.00,Wunderground v.1.15,2013-02-10 17:50:00,
2013-02-10 11:56:00,31.9,30.4,29.32,NE,45,1.0,2.0,94,0.00,,,0.00,Wunderground v.1.15,2013-02-10 17:56:00,
2013-02-10 12:01:00,32.0,30.5,29.31,NE,46,1.0,1.0,94,0.00,,,0.00,Wunderground v.1.15,2013-02-10 18:01:00,
2013-02-10 12:06:00,32.1,30.6,29.31,NNE,19,1.0,4.0,94,0.00,,,0.00,Wunderground v.1.15,2013-02-10 18:06:00,
2013-02-10 12:11:00,32.3,30.8,29.30,NE,53,1.0,2.0,94,0.00,,,0.00,Wunderground v.1.15,2013-02-10 18:11:00,
2013-02-10 12:16:00,32.3,30.8,29.29,NE,49,1.0,2.0,94,0.00,,,0.00,Wunderground v.1.15,2013-02-10 18:16:00,
2013-02-10 12:22:00,32.4,30.9,29.29,ESE,113,1.0,2.0,94,0.00,,,0.00,Wunderground v.1.15,2013-02-10 18:22:00,
2013-02-10 12:27:00,32.5,31.0,29.29,ENE,69,0.0,2.0,94,0.00,,,0.00,Wunderground v.1.15,2013-02-10 18:27:00,
2013-02-10 12:32:00,32.5,31.0,29.29,North,358,0.0,1.0,94,0.00,,,0.00,Wunderground v.1.15,2013-02-10 18:32:00,
2013-02-10 12:37:00,32.6,31.1,29.28,ENE,63,1.0,2.0,94,0.00,,,0.00,Wunderground v.1.15,2013-02-10 18:37:00,
2013-02-10 12:42:00,32.6,31.1,29.27,NE,56,1.0,1.0,94,0.00,,,0.00,Wunderground v.1.15,2013-02-10 18:42:00,
2013-02-10 12:48:00,32.7,31.2,29.27,NE,56,1.0,1.0,94,0.00,,,0.00,Wunderground v.1.15,2013-02-10 18:48:00,
2013-02-10 12:53:00,32.7,31.2,29.26,ENE,67,1.0,2.0,94,0.00,,,0.00,Wunderground v.1.15,2013-02-10 18:53:00,
2013-02-10 12:58:00,32.8,31.3,29.25,ENE,62,1.0,2.0,94,0.00,,,0.00,Wunderground v.1.15,2013-02-10 18:58:00,
2013-02-10 13:03:00,32.8,31.3,29.26,NE,51,1.0,2.0,94,0.00,,,0.00,Wunderground v.1.15,2013-02-10 19:03:00,
2013-02-10 13:08:00,32.7,31.2,29.25,NE,55,1.0,2.0,94,0.00,,,0.00,Wunderground v.1.15,2013-02-10 19:08:00,
2013-02-10 13:14:00,32.8,31.3,29.25,ENE,57,1.0,2.0,94,0.00,,,0.00,Wunderground v.1.15,2013-02-10 19:14:00,
2013-02-10 13:19:00,32.8,31.3,29.25,NE,51,1.0,2.0,94,0.00,,,0.00,Wunderground v.1.15,2013-02-10 19:19:00,
2013-02-10 13:24:00,32.8,31.3,29.25,ENE,76,1.0,2.0,94,0.00,,,0.00,Wunderground v.1.15,2013-02-10 19:24:00,
2013-02-10 13:29:00,32.9,31.4,29.24,East,89,1.0,2.0,94,0.00,,,0.00,Wunderground v.1.15,2013-02-10 19:29:00,
2013-02-10 13:34:00,32.9,31.4,29.24,SSE,152,1.0,1.0,94,0.00,,,0.00,Wunderground v.1.15,2013-02-10 19:34:00,
2013-02-10 13:40:00,32.9,31.4,29.24,NE,34,0.0,1.0,94,0.00,,,0.00,Wunderground v.1.15,2013-02-10 19:40:00,
2013-02-10 13:45:00,32.9,31.4,29.24,NNE,28,1.0,2.0,94,0.00,,,0.00,Wunderground v.1.15,2013-02-10 19:45:00,
2013-02-10 13:50:00,32.9,31.4,29.23,SE,131,1.0,1.0,94,0.00,,,0.00,Wunderground v.1.15,2013-02-10 19:50:00,
2013-02-10 13:55:00,32.9,31.4,29.23,NE,40,1.0,1.0,94,0.00,,,0.00,Wunderground v.1.15,2013-02-10 19:55:00,
2013-02-10 14:00:00,33.0,31.5,29.23,NNE,14,1.0,2.0,94,0.00,,,0.00,Wunderground v.1.15,2013-02-10 20:00:00,
2013-02-10 14:06:00,33.1,31.3,29.22,NE,50,1.0,2.0,93,0.00,,,0.00,Wunderground v.1.15,2013-02-10 20:06:00,
2013-02-10 14:11:00,33.1,31.6,29.22,East,80,1.0,2.0,94,0.00,,,0.00,Wunderground v.1.15,2013-02-10 20:11:00,
2013-02-10 14:16:00,33.1,31.3,29.22,NE,48,1.0,2.0,93,0.00,,,0.00,Wunderground v.1.15,2013-02-10 20:16:00,
2013-02-10 14:21:00,33.2,31.4,29.21,ENE,66,1.0,2.0,93,0.00,,,0.00,Wunderground v.1.15,2013-02-10 20:21:00,
2013-02-10 14:26:00,33.3,31.5,29.21,NNE,23,1.0,2.0,93,0.00,,,0.00,Wunderground v.1.15,2013-02-10 20:26:00,
2013-02-10 14:32:00,33.4,31.6,29.20,ENE,65,1.0,2.0,93,0.00,,,0.00,Wunderground v.1.15,2013-02-10 20:32:00,
2013-02-10 14:37:00,33.5,31.7,29.20,NE,49,2.0,4.0,93,0.00,,,0.00,Wunderground v.1.15,2013-02-10 20:37:00,
2013-02-10 14:42:00,33.5,31.7,29.20,NE,41,2.0,2.0,93,0.00,,,0.00,Wunderground v.1.15,2013-02-10 20:42:00,
2013-02-10 14:47:00,33.5,31.7,29.19,NNE,16,1.0,2.0,93,0.00,,,0.00,Wunderground v.1.15,2013-02-10 20:47:00,
2013-02-10 14:52:00,33.6,31.8,29.19,NNW,335,2.0,7.0,93,0.00,,,0.00,Wunderground v.1.15,2013-02-10 20:52:00,
2013-02-10 14:58:00,33.7,31.9,29.19,NNE,32,2.0,7.0,93,0.00,,,0.00,Wunderground v.1.15,2013-02-10 20:58:00,
2013-02-10 15:03:00,33.8,32.0,29.19,NE,48,1.0,3.0,93,0.00,,,0.00,Wunderground v.1.15,2013-02-10 21:03:00,
2013-02-10 15:08:00,33.8,32.0,29.19,NE,48,1.0,3.0,93,0.00,,,0.00,Wunderground v.1.15,2013-02-10 21:08:00,
2013-02-10 15:14:00,33.9,32.1,29.19,NNW,333,1.0,2.0,93,0.00,,,0.00,Wunderground v.1.15,2013-02-10 21:14:00,
2013-02-10 15:20:00,34.0,32.2,29.19,ENE,61,1.0,1.0,93,0.00,,,0.00,Wunderground v.1.15,2013-02-10 21:20:00,
2013-02-10 15:25:00,34.0,32.2,29.19,ENE,68,1.0,1.0,93,0.00,,,0.00,Wunderground v.1.15,2013-02-10 21:25:00,
2013-02-10 15:30:00,34.0,32.2,29.19,NNE,21,1.0,2.0,93,0.00,,,0.00,Wunderground v.1.15,2013-02-10 21:30:00,
2013-02-10 15:35:00,34.0,32.2,29.19,NE,51,1.0,2.0,93,0.00,,,0.00,Wunderground v.1.15,2013-02-10 21:35:00,
2013-02-10 15:40:00,34.0,32.2,29.19,NE,44,1.0,1.0,93,0.00,,,0.00,Wunderground v.1.15,2013-02-10 21:40:00,
2013-02-10 15:45:00,34.0,32.2,29.19,NNE,21,1.0,1.0,93,0.00,,,0.00,Wunderground v.1.15,2013-02-10 21:45:00,
2013-02-10 15:50:00,34.0,32.2,29.18,NE,44,1.0,1.0,93,0.00,,,0.00,Wunderground v.1.15,2013-02-10 21:50:00,
2013-02-10 15:55:00,34.0,32.2,29.18,NNE,16,1.0,2.0,93,0.00,,,0.00,Wunderground v.1.15,2013-02-10 21:55:00,
2013-02-10 16:00:00,34.0,32.2,29.18,ENE,60,1.0,1.0,93,0.00,,,0.00,Wunderground v.1.15,2013-02-10 22:00:00,
2013-02-10 16:05:00,34.0,32.2,29.18,NNE,31,1.0,2.0,93,0.00,,,0.00,Wunderground v.1.15,2013-02-10 22:05:00,
2013-02-10 16:10:00,34.0,32.2,29.18,ENE,58,1.0,3.0,93,0.00,,,0.00,Wunderground v.1.15,2013-02-10 22:10:00,
2013-02-10 16:15:00,34.0,32.2,29.17,East,86,1.0,3.0,93,0.00,,,0.00,Wunderground v.1.15,2013-02-10 22:15:00,
2013-02-10 16:20:00,34.0,32.2,29.17,NE,44,2.0,2.0,93,0.00,,,0.00,Wunderground v.1.15,2013-02-10 22:20:00,
2013-02-10 16:25:00,34.0,32.2,29.17,East,101,2.0,3.0,93,0.00,,,0.00,Wunderground v.1.15,2013-02-10 22:25:00,
2013-02-10 16:30:00,33.9,32.1,29.17,NE,53,1.0,1.0,93,0.00,,,0.00,Wunderground v.1.15,2013-02-10 22:30:00,
2013-02-10 16:35:00,33.9,32.1,29.17,WSW,257,1.0,1.0,93,0.00,,,0.00,Wunderground v.1.15,2013-02-10 22:35:00,
2013-02-10 16:40:00,34.0,32.2,29.17,East,86,1.0,1.0,93,0.00,,,0.00,Wunderground v.1.15,2013-02-10 22:40:00,
2013-02-10 16:45:00,33.9,32.1,29.17,East,96,1.0,2.0,93,0.00,,,0.00,Wunderground v.1.15,2013-02-10 22:45:00,
2013-02-10 16:51:00,34.0,32.2,29.17,NNE,28,1.0,2.0,93,0.00,,,0.00,Wunderground v.1.15,2013-02-10 22:51:00,
2013-02-10 16:56:00,34.0,32.2,29.17,ENE,61,1.0,2.0,93,0.00,,,0.00,Wunderground v.1.15,2013-02-10 22:56:00,
2013-02-10 17:01:00,33.9,32.1,29.17,NE,47,1.0,1.0,93,0.00,,,0.00,Wunderground v.1.15,2013-02-10 23:01:00,
2013-02-10 17:06:00,34.0,32.2,29.16,ENE,60,1.0,2.0,93,0.00,,,0.00,Wunderground v.1.15,2013-02-10 23:06:00,
2013-02-10 17:11:00,34.0,32.2,29.16,NE,48,1.0,2.0,93,0.00,,,0.00,Wunderground v.1.15,2013-02-10 23:11:00,
2013-02-10 17:17:00,33.9,32.1,29.16,ENE,67,2.0,4.0,93,0.00,,,0.00,Wunderground v.1.15,2013-02-10 23:17:00,
2013-02-10 17:22:00,33.9,32.1,29.16,NNE,19,2.0,2.0,93,0.00,,,0.00,Wunderground v.1.15,2013-02-10 23:22:00,
2013-02-10 17:27:00,33.9,32.1,29.16,ENE,57,1.0,2.0,93,0.00,,,0.00,Wunderground v.1.15,2013-02-10 23:27:00,
2013-02-10 17:32:00,33.8,32.0,29.16,NNE,16,1.0,1.0,93,0.00,,,0.00,Wunderground v.1.15,2013-02-10 23:32:00,
2013-02-10 17:37:00,33.8,32.0,29.16,ENE,68,1.0,2.0,93,0.00,,,0.00,Wunderground v.1.15,2013-02-10 23:37:00,
2013-02-10 17:43:00,33.8,32.0,29.16,ENE,58,1.0,3.0,93,0.00,,,0.00,Wunderground v.1.15,2013-02-10 23:43:00,
2013-02-10 17:48:00,33.8,32.0,29.16,NE,41,2.0,3.0,93,0.00,,,0.00,Wunderground v.1.15,2013-02-10 23:48:00,
2013-02-10 17:53:00,33.8,32.0,29.16,NNE,23,2.0,2.0,93,0.00,,,0.00,Wunderground v.1.15,2013-02-10 23:53:00,
2013-02-10 17:58:00,33.8,32.0,29.16,ENE,60,1.0,2.0,93,0.00,,,0.00,Wunderground v.1.15,2013-02-10 23:58:00,
2013-02-10 18:03:00,33.8,32.0,29.16,NE,51,2.0,3.0,93,0.00,,,0.00,Wunderground v.1.15,2013-02-11 00:03:00,
2013-02-10 18:09:00,33.8,32.0,29.16,NE,49,2.0,3.0,93,0.00,,,0.00,Wunderground v.1.15,2013-02-11 00:09:00,
2013-02-10 18:14:00,33.8,32.0,29.16,NE,46,1.0,3.0,93,0.00,,,0.00,Wunderground v.1.15,2013-02-11 00:14:00,
2013-02-10 18:19:00,33.8,32.0,29.16,ENE,64,1.0,3.0,93,0.00,,,0.00,Wunderground v.1.15,2013-02-11 00:19:00,
2013-02-10 18:24:00,33.8,32.0,29.16,NNE,29,1.0,2.0,93,0.00,,,0.00,Wunderground v.1.15,2013-02-11 00:24:00,
2013-02-10 18:29:00,33.7,31.9,29.16,ENE,58,1.0,2.0,93,0.00,,,0.00,Wunderground v.1.15,2013-02-11 00:29:00,
2013-02-10 18:34:00,33.7,31.9,29.16,ENE,58,1.0,1.0,93,0.00,,,0.00,Wunderground v.1.15,2013-02-11 00:34:00,
2013-02-10 18:39:00,33.7,31.9,29.16,NE,47,1.0,1.0,93,0.00,,,0.00,Wunderground v.1.15,2013-02-11 00:39:00,
2013-02-10 18:44:00,33.7,31.9,29.16,North,11,0.0,1.0,93,0.00,,,0.00,Wunderground v.1.15,2013-02-11 00:44:00,
2013-02-10 18:49:00,33.6,31.8,29.16,North,351,0.0,1.0,93,0.00,,,0.00,Wunderground v.1.15,2013-02-11 00:49:00,
2013-02-10 18:54:00,33.6,31.8,29.16,NNE,20,0.0,1.0,93,0.00,,,0.00,Wunderground v.1.15,2013-02-11 00:54:00,
2013-02-10 18:59:00,33.5,31.7,29.16,ENE,57,0.0,1.0,93,0.00,,,0.00,Wunderground v.1.15,2013-02-11 00:59:00,
2013-02-10 19:05:00,33.4,31.6,29.16,NE,53,0.0,1.0,93,0.00,,,0.00,Wunderground v.1.15,2013-02-11 01:05:00,
2013-02-10 19:10:00,33.3,31.5,29.16,NNE,33,0.0,1.0,93,0.00,,,0.00,Wunderground v.1.15,2013-02-11 01:10:00,
2013-02-10 19:15:00,33.2,31.4,29.15,NNE,21,0.0,1.0,93,0.00,,,0.00,Wunderground v.1.15,2013-02-11 01:15:00,
2013-02-10 19:20:00,33.2,31.4,29.15,NE,46,0.0,1.0,93,0.00,,,0.00,Wunderground v.1.15,2013-02-11 01:20:00,
2013-02-10 19:25:00,33.2,31.4,29.15,NE,46,0.0,1.0,93,0.00,,,0.00,Wunderground v.1.15,2013-02-11 01:25:00,
2013-02-10 19:31:00,33.1,31.3,29.15,NE,55,1.0,1.0,93,0.00,,,0.00,Wunderground v.1.15,2013-02-11 01:31:00,
2013-02-10 19:36:00,33.1,31.3,29.15,ENE,62,1.0,1.0,93,0.00,,,0.00,Wunderground v.1.15,2013-02-11 01:36:00,
2013-02-10 19:41:00,33.1,31.3,29.15,NE,46,1.0,1.0,93,0.00,,,0.00,Wunderground v.1.15,2013-02-11 01:41:00,
2013-02-10 19:46:00,33.1,31.3,29.15,ENE,61,1.0,2.0,93,0.00,,,0.00,Wunderground v.1.15,2013-02-11 01:46:00,
2013-02-10 19:51:00,33.0,31.2,29.15,ENE,57,1.0,1.0,93,0.00,,,0.00,Wunderground v.1.15,2013-02-11 01:51:00,
2013-02-10 19:57:00,32.9,31.1,29.15,NE,56,1.0,1.0,93,0.00,,,0.00,Wunderground v.1.15,2013-02-11 01:57:00,
2013-02-10 20:02:00,32.9,31.1,29.15,ENE,78,1.0,3.0,93,0.00,,,0.00,Wunderground v.1.15,2013-02-11 02:02:00,
2013-02-10 20:07:00,32.9,31.1,29.15,ENE,62,1.0,3.0,93,0.00,,,0.00,Wunderground v.1.15,2013-02-11 02:07:00,
2013-02-10 20:12:00,32.8,31.0,29.15,NE,51,1.0,1.0,93,0.00,,,0.00,Wunderground v.1.15,2013-02-11 02:12:00,
2013-02-10 20:17:00,32.8,31.0,29.14,ENE,69,1.0,1.0,93,0.00,,,0.00,Wunderground v.1.15,2013-02-11 02:17:00,
2013-02-10 20:23:00,32.7,30.9,29.14,NNE,20,1.0,2.0,93,0.00,,,0.00,Wunderground v.1.15,2013-02-11 02:23:00,
2013-02-10 20:28:00,32.7,30.9,29.14,NNE,33,1.0,2.0,93,0.00,,,0.00,Wunderground v.1.15,2013-02-11 02:28:00,
2013-02-10 20:33:00,32.6,30.8,29.14,NNE,13,1.0,1.0,93,0.00,,,0.00,Wunderground v.1.15,2013-02-11 02:33:00,
2013-02-10 20:38:00,32.6,30.8,29.14,NE,35,1.0,2.0,93,0.00,,,0.00,Wunderground v.1.15,2013-02-11 02:38:00,
2013-02-10 20:43:00,32.6,30.8,29.14,NNE,13,1.0,1.0,93,0.00,,,0.00,Wunderground v.1.15,2013-02-11 02:43:00,
2013-02-10 20:49:00,32.6,30.8,29.14,NNE,16,1.0,1.0,93,0.00,,,0.00,Wunderground v.1.15,2013-02-11 02:49:00,
2013-02-10 20:54:00,32.6,30.8,29.15,NNE,12,1.0,2.0,93,0.00,,,0.00,Wunderground v.1.15,2013-02-11 02:54:00,
2013-02-10 20:59:00,32.6,30.8,29.15,NE,34,1.0,2.0,93,0.00,,,0.00,Wunderground v.1.15,2013-02-11 02:59:00,
2013-02-10 21:04:00,32.5,30.7,29.15,NNE,23,1.0,1.0,93,0.00,,,0.00,Wunderground v.1.15,2013-02-11 03:04:00,
2013-02-10 21:09:00,32.5,30.7,29.15,North,353,1.0,1.0,93,0.00,,,0.00,Wunderground v.1.15,2013-02-11 03:09:00,
2013-02-10 21:15:00,32.5,30.7,29.15,NW,317,1.0,1.0,93,0.00,,,0.00,Wunderground v.1.15,2013-02-11 03:15:00,
2013-02-10 21:20:00,32.5,30.7,29.15,North,8,1.0,1.0,93,0.00,,,0.00,Wunderground v.1.15,2013-02-11 03:20:00,
2013-02-10 21:25:00,32.5,30.7,29.15,North,8,1.0,1.0,93,0.00,,,0.00,Wunderground v.1.15,2013-02-11 03:25:00,
2013-02-10 21:30:00,32.5,30.7,29.15,ENE,68,1.0,1.0,93,0.00,,,0.00,Wunderground v.1.15,2013-02-11 03:30:00,
2013-02-10 21:35:00,32.5,30.7,29.15,North,11,1.0,1.0,93,0.00,,,0.00,Wunderground v.1.15,2013-02-11 03:35:00,
2013-02-10 21:41:00,32.5,30.7,29.15,NNE,20,0.0,1.0,93,0.00,,,0.00,Wunderground v.1.15,2013-02-11 03:41:00,
2013-02-10 21:46:00,32.5,30.7,29.15,NNE,29,0.0,1.0,93,0.00,,,0.00,Wunderground v.1.15,2013-02-11 03:46:00,
2013-02-10 21:51:00,32.5,30.7,29.15,NNE,12,0.0,1.0,93,0.00,,,0.00,Wunderground v.1.15,2013-02-11 03:51:00,
2013-02-10 21:56:00,32.4,30.6,29.15,North,8,0.0,2.0,93,0.00,,,0.00,Wunderground v.1.15,2013-02-11 03:56:00,
2013-02-10 22:01:00,32.4,30.6,29.16,NE,40,0.0,1.0,93,0.00,,,0.00,Wunderground v.1.15,2013-02-11 04:01:00,
2013-02-10 22:07:00,32.5,30.7,29.16,North,9,0.0,1.0,93,0.00,,,0.00,Wunderground v.1.15,2013-02-11 04:07:00,
2013-02-10 22:12:00,32.4,30.6,29.16,North,360,0.0,1.0,93,0.00,,,0.00,Wunderground v.1.15,2013-02-11 04:12:00,
2013-02-10 22:17:00,32.4,30.6,29.17,NNE,23,0.0,1.0,93,0.00,,,0.00,Wunderground v.1.15,2013-02-11 04:17:00,
2013-02-10 22:22:00,32.5,30.7,29.17,East,99,0.0,1.0,93,0.00,,,0.00,Wunderground v.1.15,2013-02-11 04:22:00,
2013-02-10 22:27:00,32.5,30.7,29.17,WNW,297,0.0,2.0,93,0.00,,,0.00,Wunderground v.1.15,2013-02-11 04:27:00,
2013-02-10 22:33:00,32.4,30.6,29.17,WNW,300,1.0,1.0,93,0.00,,,0.00,Wunderground v.1.15,2013-02-11 04:33:00,
2013-02-10 22:38:00,32.4,30.6,29.17,NNW,329,1.0,2.0,93,0.00,,,0.00,Wunderground v.1.15,2013-02-11 04:38:00,
2013-02-10 22:43:00,32.4,30.6,29.18,NW,316,1.0,1.0,93,0.00,,,0.00,Wunderground v.1.15,2013-02-11 04:43:00,
2013-02-10 22:48:00,32.3,30.5,29.18,NW,314,1.0,2.0,93,0.00,,,0.00,Wunderground v.1.15,2013-02-11 04:48:00,
2013-02-10 22:53:00,32.1,30.3,29.19,WNW,300,1.0,4.0,93,0.00,,,0.00,Wunderground v.1.15,2013-02-11 04:53:00,
2013-02-10 22:59:00,32.0,30.2,29.19,NW,324,1.0,4.0,93,0.00,,,0.00,Wunderground v.1.15,2013-02-11 04:59:00,
2013-02-10 23:00:00,32.0,30.2,29.19,NW,304,1.0,2.0,93,0.00,,,0.00,Wunderground v.1.15,2013-02-11 05:00:00,
2013-02-10 23:01:00,32.0,30.2,29.19,NW,314,1.0,2.0,93,0.00,,,0.00,Wunderground v.1.15,2013-02-11 05:01:00,
2013-02-10 23:06:00,31.9,30.1,29.20,WNW,303,1.0,2.0,93,0.00,,,0.00,Wunderground v.1.15,2013-02-11 05:06:00,
2013-02-10 23:10:00,31.7,30.2,29.20,WSW,250,1.0,2.0,94,0.00,,,0.00,Wunderground v.1.15,2013-02-11 05:10:00,
2013-02-10 23:15:00,31.4,29.9,29.20,NNW,333,2.0,2.0,94,0.00,,,0.00,Wunderground v.1.15,2013-02-11 05:15:00,
2013-02-10 23:21:00,31.2,29.7,29.20,NW,323,2.0,2.0,94,0.00,,,0.00,Wunderground v.1.15,2013-02-11 05:21:00,
2013-02-10 23:26:00,31.1,29.6,29.20,WNW,300,1.0,2.0,94,0.00,,,0.00,Wunderground v.1.15,2013-02-11 05:26:00,
2013-02-10 23:31:00,30.9,29.4,29.21,NW,304,1.0,3.0,94,0.00,,,0.00,Wunderground v.1.15,2013-02-11 05:31:00,
2013-02-10 23:36:00,30.5,29.0,29.21,WNW,293,2.0,3.0,94,0.00,,,0.00,Wunderground v.1.15,2013-02-11 05:36:00,
2013-02-10 23:41:00,30.3,28.8,29.22,WNW,283,2.0,3.0,94,0.00,,,0.00,Wunderground v.1.15,2013-02-11 05:41:00,
2013-02-10 23:46:00,30.0,28.5,29.22,NNE,26,2.0,4.0,94,0.00,,,0.00,Wunderground v.1.15,2013-02-11 05:46:00,
2013-02-10 23:51:00,29.9,28.4,29.22,WNW,294,2.0,4.0,94,0.00,,,0.00,Wunderground v.1.15,2013-02-11 05:51:00,
2013-02-10 23:56:00,29.8,28.3,29.23,WNW,301,2.0,4.0,94,0.00,,,0.00,Wunderground v.1.15,2013-02-11 05:56:00,